Home > Weather > Medellin > Past weeks

Flag for Colombia Past Weather in Medellin, Colombia — Yesterday and Last 2 Weeks

Now
61 °F

Drizzle. Mostly cloudy.


Feels Like: 61 °F
Forecast: 62 / 81 °F
Wind: No wind

Location: Rionegro / J. M. Cordova

Current Time: May 29, 2016 at 11:57:30 PM

Latest Report: May 29, 2016 at 11:00 PM


Visibility: N/A

Pressure: 30.38 "Hg (25.51 "Hg at 1479m altitude)

Humidity: 94%

Dew Point: 59 °F

Location of MedellinLocation

Past Weather in Medellin — Graph

°F

Medellin Temperature Yesterday

Maximum temperature yesterday: 72 °F (at 2:00 PM)
Minimum temperature yesterday: 59 °F (at 2:00 AM)
Average temperature yesterday: 63 °F

High & Low Weather Summary for the Past Weeks

 TemperatureHumidityPressure
High77 °F (May 16, 1:00 PM)100% (May 15, 5:00 AM)30.43 "Hg (May 15, 5:00 AM)
Low54 °F (May 16, 6:00 AM)39% (May 16, 1:00 PM)30.20 "Hg (May 17, 4:00 PM)
Average65 °F78%30.31 "Hg
* Reported May 14 10:00 PM — May 29 10:00 PM, Medellin, Weather by CustomWeather, © 2016

Note: Actual official high and low records may vary slightly from our data, if they occured in-between our weather recording intervals... More about our weather records

Advertising

Medellin Weather History for the Previous 24 Hours

Scroll right to see more
 ConditionsComfort  
Time TempWeatherWind HumidityBarometerVisibility
10:00 PM
Sun, May 29
61 °FDrizzle. Mostly cloudy.No wind94%30.37 "HgN/A
9:00 PM61 °FPassing clouds.No wind94%30.37 "HgN/A
8:00 PM63 °FPassing clouds.No wind88%30.35 "HgN/A
7:00 PM63 °FPartly cloudy.No wind83%30.33 "HgN/A
6:00 PM64 °FScattered showers. Broken clouds.8 mph78%30.32 "HgN/A
5:00 PM66 °FScattered showers. Broken clouds.7 mph73%30.29 "HgN/A
4:00 PM70 °FBroken clouds.7 mph60%30.28 "HgN/A
3:00 PM70 °FBroken clouds.8 mph60%30.29 "HgN/A
2:00 PM70 °FBroken clouds.12 mph60%30.30 "HgN/A
1:00 PM70 °FBroken clouds.7 mph64%30.33 "HgN/A
12:00 PM68 °FBroken clouds.9 mph69%30.36 "HgN/A
11:00 AM68 °FScattered clouds.6 mph69%30.37 "HgN/A
10:00 AM66 °FBroken clouds.5 mph73%30.40 "HgN/A
9:00 AM63 °FBroken clouds.2 mph83%30.39 "HgN/A
8:00 AM63 °FBroken clouds.2 mph88%30.39 "Hg6 mi
7:00 AM61 °FPartly sunny.5 mph88%30.38 "Hg4 mi
6:00 AM59 °FFog.No wind94%30.34 "Hg4 mi
5:00 AM59 °FFog.No wind94%30.33 "Hg4 mi
4:00 AM59 °FFog.No wind94%30.32 "Hg4 mi
3:00 AM59 °FPartly cloudy.No wind94%N/A3 mi
2:00 AM59 °FFog.2 mph94%30.34 "Hg4 mi
1:00 AM61 °FFog.No wind94%30.36 "Hg4 mi
12:00 AM61 °FPartly cloudy.No wind94%30.38 "Hg5 mi
11:00 PM
Sat, May 28
61 °FPartly cloudy.No wind94%30.38 "Hg6 mi
Weather by CustomWeather, © 2016

See weather overviewHow to use our weather pages